Location: Shannon
(40.5500°S, 175.4167°E)
Time: 20:47:39
(UTC+00:00)

SL-4 R/B - Pass Details

Date: 17 November 2025
Orbit: 386 x 526 km, 51.6° (Epoch: 06 December)

Event Time Altitude Azimuth Distance (km) Brightness Sun altitude
Rises 14:49:48 0° 231° (SW) 2,677 5.5 -18.9°
Reaches altitude 10° 14:52:23 10° 217° (SW) 1,768 4.7 -18.6°
Maximum altitude 14:55:42 24° 161° (SSE) 1,090 4.3 -18.1°
Drops below altitude 10° 14:58:54 10° 105° (ESE) 1,700 5.4 -17.7°
Sets 15:01:20 0° 91° (E) 2,549 6.1 -17.4°
